Cairns, Queensland

5:23 AM AEST on February 10, 2016 (GMT +1000)
Cairns

Weather History for 94287 - August, 2014

Change the Weather History Date:

Thursday, August 21, 2014

  Actual Average Record
Temperature  
Mean Temperature 70 °F -  
Max Temperature 78 °F 81 °F - ()
Min Temperature 61 °F 65 °F - ()
Cooling Degree Days 4    
Growing Degree Days 20 (Base 50)    
Moisture  
Dew Point 59 °F    
Average Humidity 66    
Maximum Humidity 94    
Minimum Humidity 36    
Precipitation  
Precipitation 0.00 in 0.04 in - ()
Sea Level Pressure  
Sea Level Pressure 30.02 in    
Wind  
Wind Speed 5 mph ()    
Max Wind Speed 14 mph    
Max Gust Speed -    
Visibility 7.2 miles    
Events      
T = Trace of Precipitation, MM = Missing Value Source: Averaged Metar Reports

Daily Weather History Graph

Daily Weather History Graph

Search for Another Location

Airport or City:

Trip Planner

Search our weather history database for the weather conditions in past years. The results will help you decide how hot, cold, wet, or windy it might be!

Date:

Astronomy

Aug. 21, 2014 Rise Set
Actual Time 6:31 AM AEST 6:08 PM AEST
Civil Twilight 6:09 AM AEST 6:30 PM AEST
Nautical Twilight 5:44 AM AEST 6:56 PM AEST
Astronomical Twilight 5:19 AM AEST 7:21 PM AEST
Moon 3:02 AM AEST (8/21) 2:38 PM AEST (8/21)
Length of Visible Light 12h 21m
Length of Day
11h 36m
Waning Crescent, 17% of the Moon is Illuminated
Aug 21
Waning Crescent
Aug 26
New
Sep 2
First Quarter
Sep 9
Full
Sep 16
Last Quarter

Hourly Weather History & Observations

Time (AEST) Temp. Dew Point Humidity Pressure Visibility Wind Dir Wind Speed Gust Speed Precip Events Conditions
12:00 AM 65 °F 60 °F 78% 30.06 in - North 1.2 mph - -   Overcast
12:00 AM 64.4 °F 59.0 °F 83% 30.04 in 6.2 mi North 1.2 mph - N/A   Mostly Cloudy
12:30 AM 64.4 °F 59.0 °F 83% 30.04 in 6.2 mi NNW 3.5 mph - N/A   Mostly Cloudy
1:00 AM 63 °F 60 °F 85% 30.04 in - Calm Calm - -  
1:00 AM 62.6 °F 59.0 °F 88% 30.04 in 6.2 mi Calm Calm - N/A   Mostly Cloudy
1:30 AM 64.4 °F 60.8 °F 88% 30.01 in 6.2 mi Calm Calm - N/A   Mostly Cloudy
2:00 AM 64.4 °F 60.8 °F 88% 30.01 in 6.2 mi Calm Calm - N/A   Mostly Cloudy
2:30 AM 64.4 °F 60.8 °F 88% 30.01 in 6.2 mi Calm Calm - N/A   Mostly Cloudy
3:00 AM 64 °F 60 °F 84% 30.00 in - Calm Calm - -   Overcast
3:00 AM 64.4 °F 60.8 °F 88% 30.01 in 6.2 mi Calm Calm - N/A   Scattered Clouds
3:30 AM 62.6 °F 59.0 °F 88% 30.01 in 6.2 mi Calm Calm - N/A   Scattered Clouds
4:00 AM 63 °F 60 °F 87% 30.00 in - Calm Calm - -  
4:00 AM 62.6 °F 60.8 °F 94% 29.98 in 6.2 mi Calm Calm - N/A   Mostly Cloudy
4:30 AM 64.4 °F 60.8 °F 88% 29.98 in 6.2 mi Calm Calm - N/A   Mostly Cloudy
5:00 AM 64.4 °F 60.8 °F 88% 29.98 in 6.2 mi West 4.6 mph - N/A   Mostly Cloudy
5:30 AM 64.4 °F 60.8 °F 88% 30.01 in 6.2 mi Calm Calm - N/A   Mostly Cloudy
6:00 AM 66 °F 61 °F 79% 30.01 in 19 mi SSE 4.6 mph - -   Partly Cloudy
6:00 AM 66.2 °F 60.8 °F 83% 30.01 in 6.2 mi SSE 4.6 mph - N/A   Mostly Cloudy
6:30 AM 66.2 °F 60.8 °F 83% 30.01 in 6.2 mi NNW 1.2 mph - N/A   Mostly Cloudy
7:00 AM 67 °F 60 °F 73% 30.04 in - SE 5.8 mph - -  
7:00 AM 68.0 °F 60.8 °F 78% 30.01 in 6.2 mi SE 5.8 mph - N/A   Mostly Cloudy
7:30 AM 71.6 °F 57.2 °F 60% 30.04 in 6.2 mi South 6.9 mph - N/A   Mostly Cloudy
8:00 AM 71.6 °F 57.2 °F 60% 30.04 in 6.2 mi South 8.1 mph - N/A   Mostly Cloudy
8:30 AM 73.4 °F 59.0 °F 61% 30.04 in 6.2 mi South 9.2 mph - N/A   Mostly Cloudy
9:00 AM 74 °F 60 °F 51% 30.06 in 19 mi SSE 9.2 mph - -   Partly Cloudy
9:00 AM 75.2 °F 59.0 °F 57% 30.04 in 6.2 mi SSE 9.2 mph - N/A   Partly Cloudy
9:30 AM 75.2 °F 59.0 °F 57% 30.06 in 6.2 mi SSE 8.1 mph - N/A   Partly Cloudy
10:00 AM 76 °F 59 °F 45% 30.07 in - SSE 8.1 mph - -  
10:00 AM 77.0 °F 59.0 °F 54% 30.06 in 6.2 mi SSE 8.1 mph - N/A   Partly Cloudy
10:30 AM 77.0 °F 59.0 °F 54% 30.04 in 6.2 mi ESE 9.2 mph - N/A   Scattered Clouds
11:00 AM 77.0 °F 57.2 °F 50% 30.04 in 6.2 mi East 8.1 mph - N/A   Mostly Cloudy
11:30 AM 77.0 °F 55.4 °F 47% 30.04 in 6.2 mi ESE 11.5 mph - N/A   Mostly Cloudy
12:00 PM 76 °F 56 °F 40% 30.03 in 19 mi ESE 12.7 mph - -   Partly Cloudy
12:00 PM 75.2 °F 57.2 °F 53% 30.01 in 6.2 mi ESE 12.7 mph - N/A   Mostly Cloudy
12:30 PM 75.2 °F 57.2 °F 53% 30.01 in 6.2 mi ESE 11.5 mph - N/A   Mostly Cloudy
1:00 PM 76 °F 57 °F 41% 30.01 in - SE 10.4 mph - -  
1:00 PM 77.0 °F 57.2 °F 50% 30.01 in 6.2 mi SE 10.4 mph - N/A   Mostly Cloudy
1:30 PM 75.2 °F 57.2 °F 53% 29.98 in 6.2 mi ESE 9.2 mph - N/A   Mostly Cloudy
2:00 PM 77.0 °F 57.2 °F 50% 29.98 in 6.2 mi South 6.9 mph - N/A   Scattered Clouds
2:30 PM 78.8 °F 57.2 °F 47% 29.95 in 6.2 mi SSE 10.4 mph - N/A   Scattered Clouds
3:00 PM 78 °F 56 °F 36% 29.96 in 19 mi SSE 10.4 mph - -   Partly Cloudy
3:00 PM 77.0 °F 55.4 °F 47% 29.95 in 6.2 mi SSE 10.4 mph - N/A   Scattered Clouds
3:30 PM 77.0 °F 57.2 °F 50% 29.95 in 6.2 mi SE 11.5 mph - N/A   Partly Cloudy
4:00 PM 77 °F 58 °F 41% 29.97 in - ESE 13.8 mph - -  
4:00 PM 77.0 °F 57.2 °F 50% 29.95 in 6.2 mi ESE 13.8 mph - N/A   Partly Cloudy
4:30 PM 77.0 °F 59.0 °F 54% 29.95 in 6.2 mi ESE 13.8 mph - N/A   Partly Cloudy
5:00 PM 75.2 °F 57.2 °F 53% 29.98 in 6.2 mi ESE 13.8 mph - N/A   Partly Cloudy
5:30 PM 73.4 °F 59.0 °F 61% 29.98 in 6.2 mi ESE 12.7 mph - N/A   Partly Cloudy
6:00 PM 72 °F 59 °F 54% 30.00 in - SE 11.5 mph - -   Overcast
6:00 PM 71.6 °F 59.0 °F 64% 29.98 in 6.2 mi SE 11.5 mph - N/A   Partly Cloudy
6:30 PM 71.6 °F 59.0 °F 64% 30.01 in 6.2 mi SSE 10.4 mph - N/A   Partly Cloudy
7:00 PM 69 °F 59 °F 64% 30.03 in - SSE 8.1 mph - -  
7:00 PM 69.8 °F 59.0 °F 68% 30.01 in 6.2 mi SSE 8.1 mph - N/A   Partly Cloudy
7:30 PM 69.8 °F 60.8 °F 73% 30.04 in 6.2 mi SSE 6.9 mph - N/A   Partly Cloudy
8:00 PM 69.8 °F 59.0 °F 68% 30.04 in 6.2 mi SSE 6.9 mph - N/A   Partly Cloudy
8:30 PM 68.0 °F 59.0 °F 73% 30.04 in 6.2 mi SE 5.8 mph - N/A   Partly Cloudy
9:00 PM 69 °F 60 °F 65% 30.05 in - South 6.9 mph - -  
9:00 PM 69.8 °F 59.0 °F 68% 30.04 in 6.2 mi South 6.9 mph - N/A   Partly Cloudy
9:30 PM 69.8 °F 59.0 °F 68% 30.04 in 6.2 mi South 6.9 mph - N/A   Partly Cloudy
10:00 PM 69 °F 60 °F 64% 30.06 in - South 8.1 mph - -  
10:00 PM 68.0 °F 59.0 °F 73% 30.04 in 6.2 mi South 8.1 mph - N/A   Partly Cloudy
10:30 PM 66.2 °F 60.8 °F 83% 30.04 in 6.2 mi SE 6.9 mph - N/A   Partly Cloudy
11:00 PM 68.0 °F 60.8 °F 78% 30.04 in 6.2 mi SE 6.9 mph - N/A   Scattered Clouds
11:30 PM 69.8 °F 59.0 °F 68% 30.06 in 6.2 mi South 5.8 mph - N/A   Mostly Cloudy